Tracking 21679 objects as of 30-Oct-2020
HD Live streaming from Space Station
objects crossing your sky now

OPS 6630 (2)

Track OPS 6630 (2) now!
10-day predictions
OPS 6630 (2) is classified as:


NORAD ID: 6938
Int'l Code: 1973-088D
Perigee: 1,421.4 km
Apogee: 1,462.8 km
Inclination: 96.9 °
Period: 114.5 minutes
Semi major axis: 7813 km
RCS: 0.3492 m2 (medium)
Launch date: November 10, 1973
Source: United States (US)
Launch site: AIR FORCE WESTERN TEST RANGE (AFWTR)
aabbcc
Your satellite tracking list
Your tracking list is empty




NASA's NSSDC Master Catalog

Two Line Element Set (TLE):
1  6938U 73088D   20304.23615227 -.00000023 +00000-0 -25688-4 0  9999
2  6938 096.9331 101.2592 0026479 009.2534 164.8407 12.57099475154807
Source of the keplerian elements: AFSPC